BEIDOU 11

Last updated on Aug. 10, 2020, 5:33 a.m. UTC

1 38091U 12008A   20222.06577277  .00000052  00000-0  00000-0 0  9998
2 38091   1.5871  68.3464 0001676 297.5759  34.5360  1.00268121 31039
UTC
Height (km)
Latitude
Longitude
Inclination
Orbital Period
UTC large
Height (km)
Speed (km/s)
/
Latitude / Longitude
Inclination (degrees)
Orbital Period (minutes)
Azimuth
Elevation
Range (km)
Doppler Factor
iOS Compass Heading
iOS Angle

Next 30 passes for location: Hong Kong

Rise time Rise Azimuth (degrees) Set time Set Azimuth (degrees) Duration Max altitude (degrees)

No matching passes for this satellites